Location: City of Moscow
(46.7306°N, 116.9989°W)
Time: 14:57:43
(UTC+00:00)

RS-44 - Visible Passes

Search period start: 19 April 2026 00:00
Search period end: 29 April 2026 00:00
Orbit: 1175 x 1510 km, 82.5° (Epoch: 19 April)

Date Brightness Start Highest point End Pass type
(mag) Time Alt. Az. Time Alt. Az. Time Alt. Az.
19 Apr ? 03:49:08 10° NNE 03:52:28 12° NE 03:55:46 10° ENE visible
19 Apr ? 05:40:00 10° N 05:48:37 49° ENE 05:51:01 41° ESE visible
19 Apr ? 07:33:44 10° NNW 07:42:00 44° W 07:43:37 40° WSW visible
20 Apr ? 04:11:32 10° NNE 04:17:17 18° NE 04:22:12 12° E visible
20 Apr ? 06:03:42 10° N 06:12:39 70° ENE 06:14:48 54° SE visible
20 Apr ? 07:58:03 10° NNW 08:05:20 30° W 08:07:24 27° WSW visible
21 Apr ? 04:34:40 10° N 04:41:52 26° ENE 04:45:59 19° E visible
21 Apr ? 06:27:31 10° N 06:36:29 83° W 06:38:35 58° S visible
21 Apr ? 08:22:44 10° NNW 08:28:30 20° WNW 08:31:11 17° W visible
22 Apr ? 04:58:06 10° N 05:06:14 38° ENE 05:09:47 28° ESE visible
22 Apr ? 06:51:28 10° NNW 07:00:07 58° W 07:02:23 46° SW visible
22 Apr ? 08:48:34 10° NW 08:51:29 12° WNW 08:54:22 10° W visible
23 Apr ? 03:30:23 10° NNE 03:34:27 14° NE 03:38:27 10° ENE visible
23 Apr ? 05:21:42 10° N 05:30:24 54° ENE 05:33:36 38° SE visible
23 Apr ? 07:15:36 10° NNW 07:23:35 40° W 07:26:12 33° WSW visible
24 Apr ? 03:53:04 10° N 03:59:12 20° NE 04:04:49 11° E visible
24 Apr ? 05:45:26 10° N 05:54:23 77° E 05:57:24 46° SSE visible
24 Apr ? 07:40:00 10° NNW 07:46:53 27° W 07:50:01 21° WSW visible
25 Apr ? 04:16:18 10° N 04:23:44 29° ENE 04:28:39 17° ESE visible
25 Apr ? 06:09:17 10° NNW 06:18:09 76° W 06:21:15 45° S visible
25 Apr ? 08:04:53 10° NW 08:09:59 17° WNW 08:13:51 13° WSW visible
26 Apr ? 04:39:47 10° N 04:48:04 41° ENE 04:52:29 25° ESE visible
26 Apr ? 06:33:18 10° NNW 06:41:45 52° W 06:45:05 35° SW visible
26 Apr ? 08:32:16 10° WNW 08:32:55 10° WNW 08:33:33 10° WNW visible
27 Apr ? 03:11:47 10° NNE 03:16:24 15° NE 03:20:55 10° E visible
27 Apr ? 05:03:26 10° N 05:12:10 59° ENE 05:16:20 32° SE visible
27 Apr ? 06:57:29 10° NNW 07:05:10 35° W 07:08:56 25° SW visible
28 Apr ? 03:34:39 10° N 03:41:06 22° ENE 03:47:18 10° ESE visible
28 Apr ? 05:27:11 10° N 05:36:05 84° E 05:40:12 35° SSE visible
28 Apr ? 07:21:59 10° NNW 07:28:23 24° WNW 07:32:49 15° WSW visible
